Powrót do katalogu

SL-16 DEB

AktywnyLEO
NORAD 39302·DEBRIS·🇷🇺 Russia

Wystrzelony Dec 25, 1992 z Baikonur Cosmodrome

Loading…

Następne Przeloty (najbliższe 24 godziny)

TLE

Starzejące sięSource: Space-Track

Epoka: Sep 11, 2026, 12:30 UTC

1 39302U 92093JT  26254.52135863  .00003007  00000-0  10480-2 0  9997
2 39302  70.9815 163.2217 0109168 176.1340 359.2465 14.32838301670648

Śledź SL-16 DEB w czasie rzeczywistym z AllMySat

Download on the App Store